• In Deutschland
  • Länderverzeichnis
  • Für 7 Tage
  • Wassertemperatur
  • Satellitenkarten
  • Wetterkarte
  • Widgets
  • user-avatar
    Anmelden

    Stündliche Wetter Bad Lausick

    Heute, 20 Oktober, Freitag

    Zeit Temperatur Niederschläge Wind Luftdruck Luftfeuchtigkeit
    00:00 +12°C° 0 mm 3 m/S 745 mmHg 66%
    01:00 +12°C° 0 mm 3 m/S 745 mmHg 66%
    02:00 +12°C° 0 mm 3 m/S 745 mmHg 66%
    03:00 +12°C° 0 mm 3 m/S 745 mmHg 65%
    04:00 +12°C° 0 mm 3 m/S 745 mmHg 65%
    05:00 +12°C° 0 mm 3 m/S 745 mmHg 64%
    06:00 +12°C° 0 mm 3 m/S 745 mmHg 63%
    07:00 +12°C° 0 mm 3 m/S 745 mmHg 62%
    08:00 +13°C° 0 mm 3 m/S 745 mmHg 59%
    09:00 +16°C° 0 mm 3 m/S 746 mmHg 55%
    10:00 +18°C° 0 mm 3 m/S 746 mmHg 52%
    11:00 +19°C° 0 mm 3 m/S 746 mmHg 51%
    12:00 +20°C° 0 mm 4 m/S 746 mmHg 50%
    13:00 +20°C° 0 mm 4 m/S 746 mmHg 50%
    14:00 +19°C° 0,1 mm 3 m/S 746 mmHg 57%
    15:00 +18°C° 0,1 mm 3 m/S 746 mmHg 64%
    16:00 +17°C° 0,1 mm 2 m/S 746 mmHg 71%
    17:00 +16°C° 0,2 mm 3 m/S 746 mmHg 75%
    18:00 +16°C° 0,2 mm 3 m/S 746 mmHg 78%
    19:00 +14°C° 0,2 mm 3 m/S 746 mmHg 82%
    20:00 +14°C° 0,1 mm 4 m/S 746 mmHg 84%
    21:00 +13°C° 0,1 mm 4 m/S 747 mmHg 86%
    22:00 +12°C° 0,1 mm 4 m/S 747 mmHg 88%
    23:00 +12°C° 0 mm 4 m/S 747 mmHg 89%

    Morgen, 21 Oktober, Samstag

    Zeit Temperatur Niederschläge Wind Luftdruck Luftfeuchtigkeit
    00:00 +11°C° 0 mm 3 m/S 747 mmHg 90%
    01:00 +10°C° 0 mm 3 m/S 747 mmHg 90%
    02:00 +10°C° 0 mm 3 m/S 747 mmHg 91%
    03:00 +10°C° 0 mm 3 m/S 747 mmHg 91%
    04:00 +9°C° 0 mm 3 m/S 747 mmHg 91%
    05:00 +9°C° 0 mm 3 m/S 747 mmHg 90%
    06:00 +10°C° 0 mm 3 m/S 747 mmHg 89%
    07:00 +10°C° 0 mm 3 m/S 747 mmHg 88%
    08:00 +11°C° 0 mm 3 m/S 747 mmHg 85%
    09:00 +12°C° 0 mm 3 m/S 747 mmHg 82%
    10:00 +14°C° 0 mm 3 m/S 747 mmHg 80%
    11:00 +16°C° 0 mm 3 m/S 746 mmHg 76%
    12:00 +17°C° 0 mm 3 m/S 746 mmHg 72%
    13:00 +18°C° 0 mm 3 m/S 746 mmHg 68%
    14:00 +18°C° 0 mm 3 m/S 745 mmHg 70%
    15:00 +18°C° 0 mm 2 m/S 745 mmHg 72%
    16:00 +18°C° 0 mm 2 m/S 745 mmHg 74%
    17:00 +17°C° 0 mm 2 m/S 745 mmHg 78%
    18:00 +16°C° 0 mm 3 m/S 745 mmHg 81%
    19:00 +14°C° 0 mm 3 m/S 745 mmHg 84%
    20:00 +14°C° 0,7 mm 3 m/S 745 mmHg 87%
    21:00 +14°C° 0,7 mm 3 m/S 745 mmHg 89%
    22:00 +14°C° 0,7 mm 3 m/S 745 mmHg 92%
    23:00 +13°C° 0,5 mm 4 m/S 745 mmHg 91%

    übermorgen, 22 Oktober, Sonntag

    Zeit Temperatur Niederschläge Wind Luftdruck Luftfeuchtigkeit
    00:00 +13°C° 0,5 mm 4 m/S 746 mmHg 89%
    01:00 +13°C° 0,5 mm 5 m/S 746 mmHg 88%
    02:00 +12°C° 0,3 mm 5 m/S 746 mmHg 88%
    03:00 +12°C° 0,3 mm 4 m/S 746 mmHg 87%
    04:00 +11°C° 0,3 mm 4 m/S 746 mmHg 87%
    05:00 +11°C° 0 mm 4 m/S 746 mmHg 86%
    06:00 +11°C° 0 mm 4 m/S 746 mmHg 86%
    07:00 +10°C° 0 mm 4 m/S 746 mmHg 85%
    08:00 +10°C° 0 mm 5 m/S 746 mmHg 81%
    09:00 +10°C° 0 mm 6 m/S 746 mmHg 77%
    10:00 +11°C° 0 mm 6 m/S 746 mmHg 73%
    11:00 +11°C° 0 mm 6 m/S 746 mmHg 70%
    12:00 +11°C° 0 mm 6 m/S 746 mmHg 67%
    13:00 +12°C° 0 mm 7 m/S 745 mmHg 64%
    14:00 +11°C° 0 mm 6 m/S 745 mmHg 65%
    15:00 +12°C° 0 mm 5 m/S 745 mmHg 67%
    16:00 +11°C° 0 mm 4 m/S 745 mmHg 68%
    17:00 +10°C° 0 mm 4 m/S 745 mmHg 71%
    18:00 +9°C° 0 mm 3 m/S 746 mmHg 73%
    19:00 +9°C° 0 mm 3 m/S 746 mmHg 76%
    20:00 +9°C° 0 mm 3 m/S 746 mmHg 78%
    21:00 +8°C° 0 mm 3 m/S 746 mmHg 79%
    22:00 +7°C° 0 mm 4 m/S 746 mmHg 81%
    23:00 +8°C° 0 mm 3 m/S 746 mmHg 82%

    23 Oktober, Montag

    Zeit Temperatur Niederschläge Wind Luftdruck Luftfeuchtigkeit
    00:00 +8°C° 0 mm 3 m/S 746 mmHg 84%
    01:00 +7°C° 0 mm 3 m/S 746 mmHg 86%
    02:00 +7°C° 0 mm 3 m/S 746 mmHg 86%
    03:00 +7°C° 0 mm 3 m/S 746 mmHg 86%
    04:00 +7°C° 0 mm 3 m/S 746 mmHg 87%
    05:00 +7°C° 0 mm 3 m/S 746 mmHg 88%
    06:00 +5°C° 0 mm 3 m/S 746 mmHg 89%
    07:00 +5°C° 0 mm 3 m/S 746 mmHg 90%
    08:00 +6°C° 0 mm 4 m/S 746 mmHg 84%
    09:00 +7°C° 0 mm 4 m/S 746 mmHg 79%
    10:00 +10°C° 0 mm 4 m/S 746 mmHg 73%
    11:00 +10°C° 0 mm 4 m/S 746 mmHg 71%
    12:00 +11°C° 0 mm 4 m/S 746 mmHg 68%
    13:00 +12°C° 0 mm 4 m/S 746 mmHg 65%
    14:00 +12°C° 0,2 mm 4 m/S 746 mmHg 71%
    15:00 +11°C° 0,2 mm 3 m/S 746 mmHg 76%
    16:00 +11°C° 0,2 mm 3 m/S 746 mmHg 82%
    17:00 +10°C° 0,4 mm 3 m/S 747 mmHg 85%
    18:00 +10°C° 0,4 mm 3 m/S 747 mmHg 88%
    19:00 +9°C° 0,4 mm 3 m/S 747 mmHg 91%
    20:00 +9°C° 0,3 mm 3 m/S 747 mmHg 91%
    21:00 +9°C° 0,3 mm 3 m/S 748 mmHg 91%
    22:00 +9°C° 0,3 mm 3 m/S 748 mmHg 92%
    23:00 +9°C° 0,1 mm 3 m/S 748 mmHg 91%

    24 Oktober, Dienstag

    Zeit Temperatur Niederschläge Wind Luftdruck Luftfeuchtigkeit
    00:00 +9°C° 0,1 mm 3 m/S 748 mmHg 91%
    01:00 +9°C° 0,1 mm 3 m/S 748 mmHg 90%
    02:00 +9°C° 0 mm 3 m/S 749 mmHg 91%
    03:00 +8°C° 0 mm 3 m/S 749 mmHg 92%
    04:00 +8°C° 0 mm 2 m/S 749 mmHg 92%
    05:00 +8°C° 0 mm 2 m/S 749 mmHg 92%
    06:00 +8°C° 0 mm 2 m/S 749 mmHg 93%
    07:00 +8°C° 0 mm 2 m/S 750 mmHg 93%
    08:00 +10°C° 0 mm 1 m/S 750 mmHg 89%
    09:00 +11°C° 0 mm 1 m/S 750 mmHg 85%
    10:00 +12°C° 0 mm 1 m/S 751 mmHg 81%
    11:00 +13°C° 0 mm 1 m/S 751 mmHg 77%
    12:00 +14°C° 0 mm 1 m/S 751 mmHg 72%
    13:00 +15°C° 0 mm 1 m/S 751 mmHg 68%
    14:00 +15°C° 0 mm 1 m/S 751 mmHg 69%
    15:00 +14°C° 0 mm 0 m/S 751 mmHg 71%
    16:00 +13°C° 0 mm 0 m/S 751 mmHg 72%
    17:00 +13°C° 0 mm 1 m/S 751 mmHg 77%
    18:00 +12°C° 0 mm 1 m/S 752 mmHg 81%
    19:00 +10°C° 0 mm 2 m/S 752 mmHg 85%
    20:00 +10°C° 0 mm 2 m/S 752 mmHg 87%
    21:00 +9°C° 0 mm 2 m/S 752 mmHg 88%
    22:00 +9°C° 0 mm 2 m/S 752 mmHg 89%
    23:00 +9°C° 0 mm 2 m/S 753 mmHg 89%

    25 Oktober, Mittwoch

    Zeit Temperatur Niederschläge Wind Luftdruck Luftfeuchtigkeit
    00:00 +10°C° 0 mm 2 m/S 753 mmHg 88%
    01:00 +10°C° 0 mm 2 m/S 753 mmHg 88%
    02:00 +10°C° 0 mm 3 m/S 752 mmHg 89%
    03:00 +10°C° 0 mm 3 m/S 752 mmHg 91%
    04:00 +10°C° 0 mm 3 m/S 752 mmHg 92%
    05:00 +10°C° 0 mm 3 m/S 752 mmHg 92%
    06:00 +11°C° 0 mm 3 m/S 753 mmHg 93%
    07:00 +11°C° 0 mm 3 m/S 753 mmHg 93%
    08:00 +12°C° 0 mm 3 m/S 753 mmHg 89%
    09:00 +14°C° 0 mm 3 m/S 753 mmHg 85%
    10:00 +15°C° 0 mm 4 m/S 753 mmHg 81%
    11:00 +15°C° 0 mm 4 m/S 753 mmHg 81%
    12:00 +17°C° 0 mm 3 m/S 753 mmHg 80%
    13:00 +17°C° 0 mm 3 m/S 753 mmHg 80%
    14:00 +17°C° 0 mm 3 m/S 753 mmHg 81%
    15:00 +17°C° 0 mm 3 m/S 753 mmHg 82%
    16:00 +17°C° 0 mm 3 m/S 753 mmHg 83%
    17:00 +16°C° 0 mm 3 m/S 753 mmHg 86%
    18:00 +14°C° 0 mm 3 m/S 754 mmHg 89%
    19:00 +13°C° 0 mm 3 m/S 754 mmHg 92%
    20:00 +14°C° 0 mm 2 m/S 754 mmHg 92%
    21:00 +14°C° 0 mm 2 m/S 754 mmHg 93%
    22:00 +13°C° 0 mm 2 m/S 754 mmHg 93%
    23:00 +13°C° 0 mm 2 m/S 754 mmHg 93%
    Mehr zeigen